Regional Weather Roundup
Issued by NWS

Home | Current Version | Previous Version | Graphics & Text | Print | Product List | Glossary On
Versions: 1 2 3 4 5 6 7 8 9 10 11 12 13 14 15 16 17 18 19 20 21 22 23 24 25 26 27 28 29 30 31 32 33 34 35 36 37 38 39 40 41 42 43 44 45 46 47 48 49 50
367
ASUS45 KCYS 240610
RWRWY

WYOMING REGIONAL WEATHER ROUNDUP
NATIONAL WEATHER SERVICE CHEYENNE WY
1200 AM MDT MON APR 24 2017

NOTE:  "FAIR" INDICATES FEW OR NO CLOUDS BELOW 12,000 FEET
WITH NO SIGNIFICANT WEATHER AND/OR OBSTRUCTIONS TO VISIBILITY.

WYZ001-240700-
YELLOWSTONE NATIONAL PARK

CITY           SKY/WX    TMP DP  RH WIND       PRES   REMARKS
LK YELLOWSTONE   N/A     26  25  96 CALM      29.83F
6HR MIN TEMP:  25; 6HR MAX TEMP:  35; 6HR PCP:  0.16;

W YELLOWSTONE  NOT AVBL

$$
WYZ002>013-054>058-071-098>099-240700-
NORTHERN WYOMING

CITY           SKY/WX    TMP DP  RH WIND       PRES   REMARKS
JACKSON        MOCLDY    36  34  93 N9        29.81F WCI  29
CODY           FAIR      41  37  86 E6        29.74
GREYBULL       FAIR      51  39  63 NW12      29.68R
6HR MIN TEMP:  51; 6HR MAX TEMP:  68;

WORLAND        MOCLDY    49  41  74 NW12      29.69R
6HR MIN TEMP:  49; 6HR MAX TEMP:  65;

SHERIDAN       CLOUDY    47  42  83 N12       29.70R
6HR MIN TEMP:  47; 6HR MAX TEMP:  67;

BUFFALO        CLOUDY    46  37  71 N24G41    29.67S
6HR MIN TEMP:  46; 6HR MAX TEMP:  68;

GILLETTE       FAIR      50  45  83 NW23G31   29.62R
6HR MIN TEMP:  50; 6HR MAX TEMP:  70; 6HR PCP: TRACE;

HULETT         FAIR      52  41  66 W6        29.59R
NEWCASTLE      FAIR      59  36  41 SW7       29.61S

$$
WYZ014>020-022>026-101>103-240700-
CENTRAL WYOMING

CITY           SKY/WX    TMP DP  RH WIND       PRES   REMARKS
BIG PINEY      FAIR      35  25  66 NW5       29.85F WCI  31
6HR MIN TEMP:  30; 6HR MAX TEMP:  50;

PINEDALE       FAIR      30  27  86 N7        29.85F WCI  23
DUBOIS         FAIR      34  28  80 NW12      29.76F WCI  25
LANDER         FAIR      45  29  53 W5        29.74R
6HR MIN TEMP:  44; 6HR MAX TEMP:  58;

RIVERTON       FAIR      43  31  62 NW13      29.75R
6HR MIN TEMP:  42; 6HR MAX TEMP:  58;

CASPER         CLOUDY    52  37  56 W22       29.73R
6HR MIN TEMP:  52; 6HR MAX TEMP:  64; 6HR PCP: TRACE;

DOUGLAS        FAIR      53  38  56 NW7       29.69R
6HR MIN TEMP:  50; 6HR MAX TEMP:  72;


$$
WYZ021-027>030-104>119-240700-
SOUTHERN WYOMING

CITY           SKY/WX    TMP DP  RH WIND       PRES   REMARKS
EVANSTON       FAIR      36  30  79 SW9       29.86F WCI  29
6HR MIN TEMP:  36; 6HR MAX TEMP:  55; 6HR PCP: TRACE;

KEMMERER         N/A     36  32  87 W3        29.87F
FORT BRIDGER   FAIR      40  33  77 SW9       29.90S WCI  34
ROCK SPRINGS   FAIR      39  36  89 SW9       29.85F WCI  33
6HR MIN TEMP:  39; 6HR MAX TEMP:  59; 6HR PCP:  0.15;

DIXON          LGT RAIN  44  38  82 NW6       29.90R
RAWLINS        LGT RAIN  41  36  82 W14       29.84R
6HR MIN TEMP:  41; 6HR MAX TEMP:  65; 6HR PCP:  0.05;

SARATOGA       DRIZZLE   43  36  75 W12G29    29.87R
LARAMIE        FAIR      43  31  62 NW6       29.78R
6HR MIN TEMP:  43; 6HR MAX TEMP:  61;

CHEYENNE       FAIR      47  34  60 W6        29.69F
6HR MIN TEMP:  47; 6HR MAX TEMP:  63;

TORRINGTON     FAIR      53  38  56 N5        29.59S
6HR MIN TEMP:  53; 6HR MAX TEMP:  73;

PINE BLUFFS    FAIR      43  37  81 S6        29.64F

$$




USA.gov is the U.S. government's official web portal to all federal, state and local government web resources and services.